N0OQA Weather Reports


Display with metric or nautical units.
time (UTC)temp
F
wind
direction
speed
MPH
gust
MPH
rain 1hr
in
rain 24hr
in
rain mn
in
humidity
%
barometer
mb
20260903115958 69 150 2.0 5.0 0.00 0.00 0.00 90 1012.9
20260903114957 69 42 3.0 7.0 0.00 0.00 0.00 90 1012.9
20260903101950 68 1 3.0 7.0 0.00 0.00 0.00 88 1012.7
20260903081943 70 35 1.0 3.0 0.00 0.00 0.00 81 1012.8
20260903080942 70 0 0.0 0.0 0.00 0.00 0.00 80 1013.1
20260903060934 72 0 0.0 0.0 0.00 0.00 0.00 75 1013.7
20260903055933 72 0 0.0 0.0 0.00 0.00 0.00 75 1013.7
20260903054932 72 13 1.0 2.0 0.00 0.00 0.00 74 1013.7
20260903051929 73 0 0.0 0.0 0.00 0.00 0.00 72 1013.8
20260903035423 74 0 2.0 5.0 0.00 0.00 0.00 67 1014.0
20260903033922 74 34 1.0 3.0 0.00 0.00 0.00 67 1014.0
20260903005409 80 0 0.0 0.0 0.00 0.00 0.00 56 1013.3
20260903003408 81 0 0.0 0.0 0.00 0.00 0.00 55 1013.3
20260902233404 83 181 4.0 7.0 0.00 0.00 0.00 49 1013.1
20260902224400 84 0 0.0 0.0 0.00 0.00 0.00 48 1013.3
20260902214857 86 41 1.0 2.0 0.00 0.00 0.00 46 1013.6
20260902213856 85 352 2.0 5.0 0.00 0.00 0.00 46 1013.7
20260902213356 86 8 6.0 9.0 0.00 0.00 0.00 45 1013.8
20260902205853 86 148 3.0 7.0 0.00 0.00 0.00 44 1013.8
20260902205353 87 23 6.0 7.0 0.00 0.00 0.00 43 1013.8
20260902173834 83 23 2.0 5.0 0.00 0.00 0.00 52 1015.4
20260902172333 82 201 4.0 8.0 0.00 0.00 0.00 52 1015.6
20260902165331 80 312 2.0 3.0 0.00 0.00 0.00 55 1015.5
20260902163330 78 11 4.0 5.0 0.00 0.00 0.00 64 1015.6
20260902155827 74 314 4.0 8.0 0.00 0.00 0.00 72 1015.7
20260902154326 74 37 6.0 8.0 0.00 0.00 0.00 72 1015.5
20260902152825 73 0 0.0 0.0 0.00 0.00 0.00 73 1015.6
20260902150822 72 239 0.0 2.0 0.00 0.00 0.00 77 1015.6
20260902150320 72 228 3.0 4.0 0.00 0.00 0.00 77 1015.6
20260902145820 72 245 2.0 5.0 0.00 0.00 0.00 78 1015.5
20260902145319 71 0 0.0 0.0 0.00 0.00 0.00 79 1015.4
20260902144819 71 0 0.0 0.0 0.00 0.00 0.00 80 1015.3
20260902125309 65 0 0.0 0.0 0.00 0.00 0.00 93 1015.9
20260902123308 66 0 0.0 0.0 0.00 0.00 0.00 92 1015.9
20260902121807 66 0 0.0 0.0 0.00 0.00 0.00 91 1015.7
20260902121305 66 0 0.0 0.0 0.00 0.00 0.00 91 1015.6